Terminal Aerodrome Forecast
Issued by NWS Boston, MA

Home | Current Version | Previous Version | Text Only | Print | Product List | Glossary On
Versions: 1 2 3 4 5 6 7 8 9 10 11 12 13 14 15 16 17 18 19 20 21 22 23 24 25 26 27 28 29 30 31 32 33 34 35 36 37 38 39 40 41 42
000
FTUS41 KBOX 231502 AAA
TAFBDL
TAF AMD
KBDL 231502Z 2315/2418 02007KT P6SM BKN025
     FM231700 05008KT P6SM SCT025 BKN060
     FM232300 08005KT P6SM SCT200
     FM240200 00000KT P6SM SCT250=

USA.gov is the U.S. government's official web portal to all federal, state and local government web resources and services.